Year,Month,Day,Hour,Minute,Value (Times are PST for barometer in hPa)
2022,07,17,00,00,1000.34
2022,07,17,00,01,1000.37
2022,07,17,00,02,1000.37
2022,07,17,00,03,1000.37
2022,07,17,00,04,1000.34
2022,07,17,00,05,1000.37
2022,07,17,00,06,1000.37
2022,07,17,00,07,1000.37
2022,07,17,00,08,1000.44
2022,07,17,00,09,1000.37
2022,07,17,00,10,1000.37
2022,07,17,00,11,1000.41
2022,07,17,00,12,1000.41
2022,07,17,00,13,1000.41
2022,07,17,00,14,1000.37
2022,07,17,00,15,1000.37
2022,07,17,00,16,1000.37
2022,07,17,00,17,1000.37
2022,07,17,00,18,1000.41
2022,07,17,00,19,1000.44
2022,07,17,00,20,1000.44
2022,07,17,00,21,1000.41
2022,07,17,00,22,1000.44
2022,07,17,00,23,1000.41
2022,07,17,00,24,1000.41
2022,07,17,00,25,1000.48
2022,07,17,00,26,1000.44
2022,07,17,00,27,1000.51
2022,07,17,00,28,1000.48
2022,07,17,00,29,1000.51
2022,07,17,00,30,1000.51
2022,07,17,00,31,1000.54
2022,07,17,00,32,1000.54
2022,07,17,00,33,1000.58
2022,07,17,00,34,1000.58
2022,07,17,00,35,1000.54
2022,07,17,00,36,1000.58
2022,07,17,00,37,1000.51
2022,07,17,00,38,1000.54
2022,07,17,00,39,1000.54
2022,07,17,00,40,1000.51
2022,07,17,00,41,1000.48
2022,07,17,00,42,1000.44
2022,07,17,00,43,1000.48
2022,07,17,00,44,1000.44
2022,07,17,00,45,1000.44
2022,07,17,00,46,1000.44
2022,07,17,00,47,1000.44
2022,07,17,00,48,1000.44
2022,07,17,00,49,1000.44
2022,07,17,00,50,1000.41
2022,07,17,00,51,1000.41
2022,07,17,00,52,1000.41
2022,07,17,00,53,1000.41
2022,07,17,00,54,1000.37
2022,07,17,00,55,1000.34
2022,07,17,00,56,1000.34
2022,07,17,00,57,1000.34
2022,07,17,00,58,1000.34
2022,07,17,00,59,1000.37
2022,07,17,01,00,1000.37
2022,07,17,01,01,1000.34
2022,07,17,01,02,1000.34
2022,07,17,01,03,1000.27
2022,07,17,01,04,1000.34
2022,07,17,01,05,1000.34
2022,07,17,01,06,1000.37
2022,07,17,01,07,1000.34
2022,07,17,01,08,1000.34
2022,07,17,01,09,1000.34
2022,07,17,01,10,1000.27
2022,07,17,01,11,1000.24
2022,07,17,01,12,1000.27
2022,07,17,01,13,1000.31
2022,07,17,01,14,1000.37
2022,07,17,01,15,1000.31
2022,07,17,01,16,1000.31
2022,07,17,01,17,1000.27
2022,07,17,01,18,1000.24
2022,07,17,01,19,1000.20
2022,07,17,01,20,1000.20
2022,07,17,01,21,1000.17
2022,07,17,01,22,1000.17
2022,07,17,01,23,1000.17
2022,07,17,01,24,1000.17
2022,07,17,01,25,1000.17
2022,07,17,01,26,1000.10
2022,07,17,01,27,1000.10
2022,07,17,01,28,1000.10
2022,07,17,01,29,1000.07
2022,07,17,01,30,1000.10
2022,07,17,01,31,1000.07
2022,07,17,01,32,1000.03
2022,07,17,01,33,1000.07
2022,07,17,01,34,1000.03
2022,07,17,01,35,1000.07
2022,07,17,01,36,1000.03
2022,07,17,01,37,1000.07
2022,07,17,01,38,1000.07
2022,07,17,01,39,1000.07
2022,07,17,01,40,1000.10
2022,07,17,01,41,1000.10
2022,07,17,01,42,1000.07
2022,07,17,01,43,1000.03
2022,07,17,01,44,1000.07
2022,07,17,01,45,1000.03
2022,07,17,01,46,1000.07
2022,07,17,01,47,1000.07
2022,07,17,01,48,1000.07
2022,07,17,01,49,1000.03
2022,07,17,01,50,1000.00
2022,07,17,01,51,1000.03
2022,07,17,01,52,999.97
2022,07,17,01,53,999.97
2022,07,17,01,54,1000.00
2022,07,17,01,55,1000.00
2022,07,17,01,56,1000.00
2022,07,17,01,57,1000.03
2022,07,17,01,58,1000.03
2022,07,17,01,59,1000.00
2022,07,17,02,00,1000.00
2022,07,17,02,01,999.97
2022,07,17,02,02,1000.00
2022,07,17,02,03,1000.00
2022,07,17,02,04,1000.00
2022,07,17,02,05,999.97
2022,07,17,02,06,1000.00
2022,07,17,02,07,999.97
2022,07,17,02,08,1000.00
2022,07,17,02,09,999.93
2022,07,17,02,10,999.97
2022,07,17,02,11,999.97
2022,07,17,02,12,1000.00
2022,07,17,02,13,999.97
2022,07,17,02,14,1000.03
2022,07,17,02,15,999.97
2022,07,17,02,16,1000.00
2022,07,17,02,17,1000.03
2022,07,17,02,18,1000.07
2022,07,17,02,19,1000.10
2022,07,17,02,20,1000.10
2022,07,17,02,21,1000.10
2022,07,17,02,22,1000.14
2022,07,17,02,23,1000.10
2022,07,17,02,24,1000.14
2022,07,17,02,25,1000.14
2022,07,17,02,26,1000.17
2022,07,17,02,27,1000.10
2022,07,17,02,28,1000.17
2022,07,17,02,29,1000.14
2022,07,17,02,30,1000.14
2022,07,17,02,31,1000.14
2022,07,17,02,32,1000.17
2022,07,17,02,33,1000.14
2022,07,17,02,34,1000.14
2022,07,17,02,35,1000.10
2022,07,17,02,36,1000.14
2022,07,17,02,37,1000.14
2022,07,17,02,38,1000.10
2022,07,17,02,39,1000.10
2022,07,17,02,40,1000.07
2022,07,17,02,41,1000.10
2022,07,17,02,42,1000.03
2022,07,17,02,43,1000.07
2022,07,17,02,44,1000.00
2022,07,17,02,45,1000.03
2022,07,17,02,46,1000.03
2022,07,17,02,47,1000.03
2022,07,17,02,48,1000.03
2022,07,17,02,49,1000.00
2022,07,17,02,50,1000.00
2022,07,17,02,51,1000.03
2022,07,17,02,52,1000.00
2022,07,17,02,53,1000.00
2022,07,17,02,54,1000.03
2022,07,17,02,55,1000.00
2022,07,17,02,56,1000.00
2022,07,17,02,57,1000.00
2022,07,17,02,58,1000.03
2022,07,17,02,59,1000.00
2022,07,17,03,00,999.97
2022,07,17,03,01,1000.00
2022,07,17,03,02,1000.00
2022,07,17,03,03,1000.00
2022,07,17,03,04,999.97
2022,07,17,03,05,1000.00
2022,07,17,03,06,1000.00
2022,07,17,03,07,1000.00
2022,07,17,03,08,1000.00
2022,07,17,03,09,1000.00
2022,07,17,03,10,999.97
2022,07,17,03,11,1000.00
2022,07,17,03,12,999.97
2022,07,17,03,13,999.97
2022,07,17,03,14,999.97
2022,07,17,03,15,999.93
2022,07,17,03,16,999.93
2022,07,17,03,17,999.97
2022,07,17,03,18,1000.00
2022,07,17,03,19,999.90
2022,07,17,03,20,999.90
2022,07,17,03,21,999.90
2022,07,17,03,22,999.87
2022,07,17,03,23,999.87
2022,07,17,03,24,999.87
2022,07,17,03,25,999.80
2022,07,17,03,26,999.83
2022,07,17,03,27,999.80
2022,07,17,03,28,999.76
2022,07,17,03,29,999.76
2022,07,17,03,30,999.76
2022,07,17,03,31,999.76
2022,07,17,03,32,999.73
2022,07,17,03,33,999.76
2022,07,17,03,34,999.73
2022,07,17,03,35,999.73
2022,07,17,03,36,999.70
2022,07,17,03,37,999.70
2022,07,17,03,38,999.70
2022,07,17,03,39,999.70
2022,07,17,03,40,999.70
2022,07,17,03,41,999.73
2022,07,17,03,42,999.80
2022,07,17,03,43,999.80
2022,07,17,03,44,999.80
2022,07,17,03,45,999.76
2022,07,17,03,46,999.80
2022,07,17,03,47,999.80
2022,07,17,03,48,999.76
2022,07,17,03,49,999.76
2022,07,17,03,50,999.76
2022,07,17,03,51,999.76
2022,07,17,03,52,999.73
2022,07,17,03,53,999.70
2022,07,17,03,54,999.70
2022,07,17,03,55,999.70
2022,07,17,03,56,999.66
2022,07,17,03,57,999.73
2022,07,17,03,58,999.73
2022,07,17,03,59,999.73
2022,07,17,04,00,999.70
2022,07,17,04,01,999.70
2022,07,17,04,02,999.70
2022,07,17,04,03,999.70
2022,07,17,04,04,999.66
2022,07,17,04,05,999.63
2022,07,17,04,06,999.63
2022,07,17,04,07,999.56
2022,07,17,04,08,999.56
2022,07,17,04,09,999.56
2022,07,17,04,10,999.49
2022,07,17,04,11,999.43
2022,07,17,04,12,999.39
2022,07,17,04,13,999.39
2022,07,17,04,14,999.43
2022,07,17,04,15,999.36
2022,07,17,04,16,999.26
2022,07,17,04,17,999.26
2022,07,17,04,18,999.22
2022,07,17,04,19,999.22
2022,07,17,04,20,999.19
2022,07,17,04,21,999.19
2022,07,17,04,22,999.15
2022,07,17,04,23,999.19
2022,07,17,04,24,999.19
2022,07,17,04,25,999.15
2022,07,17,04,26,999.19
2022,07,17,04,27,999.15
2022,07,17,04,28,999.15
2022,07,17,04,29,999.15
2022,07,17,04,30,999.09
2022,07,17,04,31,999.09
2022,07,17,04,32,999.19
2022,07,17,04,33,999.15
2022,07,17,04,34,999.19
2022,07,17,04,35,999.19
2022,07,17,04,36,999.15
2022,07,17,04,37,999.12
2022,07,17,04,38,999.12
2022,07,17,04,39,999.09
2022,07,17,04,40,999.05
2022,07,17,04,41,999.09
2022,07,17,04,42,999.09
2022,07,17,04,43,999.09
2022,07,17,04,44,999.09
2022,07,17,04,45,999.09
2022,07,17,04,46,999.09
2022,07,17,04,47,999.05
2022,07,17,04,48,999.05
2022,07,17,04,49,999.05
2022,07,17,04,50,999.05
2022,07,17,04,51,999.02
2022,07,17,04,52,998.99
2022,07,17,04,53,999.02
2022,07,17,04,54,998.95
2022,07,17,04,55,998.99
2022,07,17,04,56,998.95
2022,07,17,04,57,998.99
2022,07,17,04,58,998.99
2022,07,17,04,59,998.95
2022,07,17,05,00,998.99
2022,07,17,05,01,998.99
2022,07,17,05,02,998.95
2022,07,17,05,03,998.95
2022,07,17,05,04,998.95
2022,07,17,05,05,998.92
2022,07,17,05,06,998.95
2022,07,17,05,07,998.95
2022,07,17,05,08,998.92
2022,07,17,05,09,998.92
2022,07,17,05,10,998.88
2022,07,17,05,11,998.92
2022,07,17,05,12,998.95
2022,07,17,05,13,999.02
2022,07,17,05,14,999.02
2022,07,17,05,15,999.09
2022,07,17,05,16,999.09
2022,07,17,05,17,999.12
2022,07,17,05,18,999.12
2022,07,17,05,19,999.12
2022,07,17,05,20,999.19
2022,07,17,05,21,999.19
2022,07,17,05,22,999.22
2022,07,17,05,23,999.19
2022,07,17,05,24,999.19
2022,07,17,05,25,999.22
2022,07,17,05,26,999.22
2022,07,17,05,27,999.26
2022,07,17,05,28,999.26
2022,07,17,05,29,999.26
2022,07,17,05,30,999.26
2022,07,17,05,31,999.22
2022,07,17,05,32,999.19
2022,07,17,05,33,999.19
2022,07,17,05,34,999.19
2022,07,17,05,35,999.22
2022,07,17,05,36,999.26
2022,07,17,05,37,999.22
2022,07,17,05,38,999.22
2022,07,17,05,39,999.22
2022,07,17,05,40,999.26
2022,07,17,05,41,999.22
2022,07,17,05,42,999.22
2022,07,17,05,43,999.22
2022,07,17,05,44,999.26
2022,07,17,05,45,999.26
2022,07,17,05,46,999.29
2022,07,17,05,47,999.29
2022,07,17,05,48,999.32
2022,07,17,05,49,999.32
2022,07,17,05,50,999.32
2022,07,17,05,51,999.36
2022,07,17,05,52,999.39
2022,07,17,05,53,999.36
2022,07,17,05,54,999.39
2022,07,17,05,55,999.36
2022,07,17,05,56,999.32
2022,07,17,05,57,999.32
2022,07,17,05,58,999.39
2022,07,17,05,59,999.32
2022,07,17,06,00,999.32
2022,07,17,06,01,999.39
2022,07,17,06,02,999.39
2022,07,17,06,03,999.43
2022,07,17,06,04,999.43
2022,07,17,06,05,999.46
2022,07,17,06,06,999.46
2022,07,17,06,07,999.43
2022,07,17,06,08,999.43
2022,07,17,06,09,999.39
2022,07,17,06,10,999.39
2022,07,17,06,11,999.36
2022,07,17,06,12,999.36
2022,07,17,06,13,999.36
2022,07,17,06,14,999.32
2022,07,17,06,15,999.32
2022,07,17,06,16,999.32
2022,07,17,06,17,999.32
2022,07,17,06,18,999.36
2022,07,17,06,19,999.32
2022,07,17,06,20,999.39
2022,07,17,06,21,999.43
2022,07,17,06,22,999.43
2022,07,17,06,23,999.43
2022,07,17,06,24,999.43
2022,07,17,06,25,999.46
2022,07,17,06,26,999.46
2022,07,17,06,27,999.43
2022,07,17,06,28,999.39
2022,07,17,06,29,999.39
2022,07,17,06,30,999.39
2022,07,17,06,31,999.39
2022,07,17,06,32,999.43
2022,07,17,06,33,999.39
2022,07,17,06,34,999.39
2022,07,17,06,35,999.43
2022,07,17,06,36,999.43
2022,07,17,06,37,999.46
2022,07,17,06,38,999.46
2022,07,17,06,39,999.46
2022,07,17,06,40,999.36
2022,07,17,06,41,999.39
2022,07,17,06,42,999.39
2022,07,17,06,43,999.36
2022,07,17,06,44,999.36
2022,07,17,06,45,999.32
2022,07,17,06,46,999.29
2022,07,17,06,47,999.26
2022,07,17,06,48,999.29
2022,07,17,06,49,999.26
2022,07,17,06,50,999.26
2022,07,17,06,51,999.26
2022,07,17,06,52,999.29
2022,07,17,06,53,999.26
2022,07,17,06,54,999.26
2022,07,17,06,55,999.22
2022,07,17,06,56,999.22
2022,07,17,06,57,999.19
2022,07,17,06,58,999.15
2022,07,17,06,59,999.15
2022,07,17,07,00,999.15
2022,07,17,07,01,999.09
2022,07,17,07,02,999.09
2022,07,17,07,03,999.09
2022,07,17,07,04,999.05
2022,07,17,07,05,999.05
2022,07,17,07,06,999.05
2022,07,17,07,07,999.02
2022,07,17,07,08,999.02
2022,07,17,07,09,999.02
2022,07,17,07,10,999.02
2022,07,17,07,11,998.99
2022,07,17,07,12,999.02
2022,07,17,07,13,998.99
2022,07,17,07,14,999.02
2022,07,17,07,15,999.02
2022,07,17,07,16,998.99
2022,07,17,07,17,998.99
2022,07,17,07,18,998.99
2022,07,17,07,19,998.95
2022,07,17,07,20,998.99
2022,07,17,07,21,998.95
2022,07,17,07,22,998.99
2022,07,17,07,23,999.02
2022,07,17,07,24,999.02
2022,07,17,07,25,998.99
2022,07,17,07,26,999.05
2022,07,17,07,27,999.05
2022,07,17,07,28,999.09
2022,07,17,07,29,999.09
2022,07,17,07,30,999.09
2022,07,17,07,31,999.02
2022,07,17,07,32,999.02
2022,07,17,07,33,998.99
2022,07,17,07,34,998.95
2022,07,17,07,35,998.88
2022,07,17,07,36,998.88
2022,07,17,07,37,998.88
2022,07,17,07,38,998.88
2022,07,17,07,39,998.85
2022,07,17,07,40,998.82
2022,07,17,07,41,998.82
2022,07,17,07,42,998.82
2022,07,17,07,43,998.88
2022,07,17,07,44,998.88
2022,07,17,07,45,998.92
2022,07,17,07,46,998.92
2022,07,17,07,47,998.95
2022,07,17,07,48,998.95
2022,07,17,07,49,998.95
2022,07,17,07,50,998.85
2022,07,17,07,51,998.92
2022,07,17,07,52,998.85
2022,07,17,07,53,998.85
2022,07,17,07,54,998.82
2022,07,17,07,55,998.85
2022,07,17,07,56,998.82
2022,07,17,07,57,998.82
2022,07,17,07,58,998.85
2022,07,17,07,59,998.85
2022,07,17,08,00,998.88
2022,07,17,08,01,998.85
2022,07,17,08,02,998.82
2022,07,17,08,03,998.82
2022,07,17,08,04,998.85
2022,07,17,08,05,998.82
2022,07,17,08,06,998.82
2022,07,17,08,07,998.78
2022,07,17,08,08,998.78
2022,07,17,08,09,998.78
2022,07,17,08,10,998.75
2022,07,17,08,11,998.78
2022,07,17,08,12,998.71
2022,07,17,08,13,998.71
2022,07,17,08,14,998.71
2022,07,17,08,15,998.75
2022,07,17,08,16,998.71
2022,07,17,08,17,998.71
2022,07,17,08,18,998.71
2022,07,17,08,19,998.68
2022,07,17,08,20,998.75
2022,07,17,08,21,998.71
2022,07,17,08,22,998.68
2022,07,17,08,23,998.71
2022,07,17,08,24,998.65
2022,07,17,08,25,998.75
2022,07,17,08,26,998.71
2022,07,17,08,27,998.75
2022,07,17,08,28,998.78
2022,07,17,08,29,998.75
2022,07,17,08,30,998.82
2022,07,17,08,31,998.78
2022,07,17,08,32,998.78
2022,07,17,08,33,998.78
2022,07,17,08,34,998.78
2022,07,17,08,35,998.78
2022,07,17,08,36,998.82
2022,07,17,08,37,998.78
2022,07,17,08,38,998.82
2022,07,17,08,39,998.75
2022,07,17,08,40,998.75
2022,07,17,08,41,998.71
2022,07,17,08,42,998.71
2022,07,17,08,43,998.68
2022,07,17,08,44,998.71
2022,07,17,08,45,998.71
2022,07,17,08,46,998.68
2022,07,17,08,47,998.65
2022,07,17,08,48,998.68
2022,07,17,08,49,998.65
2022,07,17,08,50,998.61
2022,07,17,08,51,998.65
2022,07,17,08,52,998.61
2022,07,17,08,53,998.58
2022,07,17,08,54,998.54
2022,07,17,08,55,998.58
2022,07,17,08,56,998.58
2022,07,17,08,57,998.54
2022,07,17,08,58,998.54
2022,07,17,08,59,998.54
2022,07,17,09,00,998.51
2022,07,17,09,01,998.51
2022,07,17,09,02,998.54
2022,07,17,09,03,998.48
2022,07,17,09,04,998.51
2022,07,17,09,05,998.48
2022,07,17,09,06,998.48
2022,07,17,09,07,998.41
2022,07,17,09,08,998.48
2022,07,17,09,09,998.41
2022,07,17,09,10,998.41
2022,07,17,09,11,998.41
2022,07,17,09,12,998.38
2022,07,17,09,13,998.34
2022,07,17,09,14,998.34
2022,07,17,09,15,998.31
2022,07,17,09,16,998.31
2022,07,17,09,17,998.31
2022,07,17,09,18,998.24
2022,07,17,09,19,998.21
2022,07,17,09,20,998.21
2022,07,17,09,21,998.21
2022,07,17,09,22,998.21
2022,07,17,09,23,998.17
2022,07,17,09,24,998.21
2022,07,17,09,25,998.21
2022,07,17,09,26,998.17
2022,07,17,09,27,998.17
2022,07,17,09,28,998.14
2022,07,17,09,29,998.14
2022,07,17,09,30,998.14
2022,07,17,09,31,998.14
2022,07,17,09,32,998.14
2022,07,17,09,33,998.17
2022,07,17,09,34,998.14
2022,07,17,09,35,998.17
2022,07,17,09,36,998.21
2022,07,17,09,37,998.21
2022,07,17,09,38,998.21
2022,07,17,09,39,998.14
2022,07,17,09,40,998.17
2022,07,17,09,41,998.14
2022,07,17,09,42,998.17
2022,07,17,09,43,998.14
2022,07,17,09,44,998.17
2022,07,17,09,45,998.10
2022,07,17,09,46,998.07
2022,07,17,09,47,998.04
2022,07,17,09,48,998.07
2022,07,17,09,49,998.07
2022,07,17,09,50,998.04
2022,07,17,09,51,998.04
2022,07,17,09,52,998.04
2022,07,17,09,53,998.00
2022,07,17,09,54,998.04
2022,07,17,09,55,998.04
2022,07,17,09,56,998.04
2022,07,17,09,57,998.04
2022,07,17,09,58,998.07
2022,07,17,09,59,998.04
2022,07,17,10,00,998.07
2022,07,17,10,01,998.04
2022,07,17,10,02,997.97
2022,07,17,10,03,997.97
2022,07,17,10,04,998.00
2022,07,17,10,05,998.00
2022,07,17,10,06,998.00
2022,07,17,10,07,997.97
2022,07,17,10,08,997.97
2022,07,17,10,09,997.97
2022,07,17,10,10,997.94
2022,07,17,10,11,997.94
2022,07,17,10,12,997.90
2022,07,17,10,13,997.94
2022,07,17,10,14,997.87
2022,07,17,10,15,997.87
2022,07,17,10,16,997.80
2022,07,17,10,17,997.80
2022,07,17,10,18,997.77
2022,07,17,10,19,997.77
2022,07,17,10,20,997.73
2022,07,17,10,21,997.73
2022,07,17,10,22,997.70
2022,07,17,10,23,997.73
2022,07,17,10,24,997.66
2022,07,17,10,25,997.66
2022,07,17,10,26,997.60
2022,07,17,10,27,997.56
2022,07,17,10,28,997.56
2022,07,17,10,29,997.56
2022,07,17,10,30,997.53
2022,07,17,10,31,997.50
2022,07,17,10,32,997.46
2022,07,17,10,33,997.43
2022,07,17,10,34,997.39
2022,07,17,10,35,997.39
2022,07,17,10,36,997.43
2022,07,17,10,37,997.36
2022,07,17,10,38,997.33
2022,07,17,10,39,997.33
2022,07,17,10,40,997.26
2022,07,17,10,41,997.26
2022,07,17,10,42,997.29
2022,07,17,10,43,997.33
2022,07,17,10,44,997.33
2022,07,17,10,45,997.33
2022,07,17,10,46,997.29
2022,07,17,10,47,997.29
2022,07,17,10,48,997.36
2022,07,17,10,49,997.33
2022,07,17,10,50,997.33
2022,07,17,10,51,997.33
2022,07,17,10,52,997.29
2022,07,17,10,53,997.29
2022,07,17,10,54,997.26
2022,07,17,10,55,997.22
2022,07,17,10,56,997.22
2022,07,17,10,57,997.19
2022,07,17,10,58,997.16
2022,07,17,10,59,997.12
2022,07,17,11,00,997.09
2022,07,17,11,01,997.12
2022,07,17,11,02,997.12
2022,07,17,11,03,997.12
2022,07,17,11,04,997.16
2022,07,17,11,05,997.12
2022,07,17,11,06,997.12
2022,07,17,11,07,997.12
2022,07,17,11,08,997.09
2022,07,17,11,09,997.05
2022,07,17,11,10,997.09
2022,07,17,11,11,997.09
2022,07,17,11,12,997.09
2022,07,17,11,13,997.09
2022,07,17,11,14,997.09
2022,07,17,11,15,997.02
2022,07,17,11,16,997.02
2022,07,17,11,17,997.02
2022,07,17,11,18,996.95
2022,07,17,11,19,996.92
2022,07,17,11,20,996.95
2022,07,17,11,21,996.95
2022,07,17,11,22,996.92
2022,07,17,11,23,996.95
2022,07,17,11,24,996.89
2022,07,17,11,25,996.89
2022,07,17,11,26,996.95
2022,07,17,11,27,996.95
2022,07,17,11,28,996.92
2022,07,17,11,29,996.89
2022,07,17,11,30,996.92
2022,07,17,11,31,996.89
2022,07,17,11,32,996.95
2022,07,17,11,33,996.95
2022,07,17,11,34,996.92
2022,07,17,11,35,996.92
2022,07,17,11,36,996.85
2022,07,17,11,37,996.82
2022,07,17,11,38,996.82
2022,07,17,11,39,996.82
2022,07,17,11,40,996.82
2022,07,17,11,41,996.78
2022,07,17,11,42,996.82
2022,07,17,11,43,996.78
2022,07,17,11,44,996.75
2022,07,17,11,45,996.82
2022,07,17,11,46,996.78
2022,07,17,11,47,996.78
2022,07,17,11,48,996.82
2022,07,17,11,49,996.85
2022,07,17,11,50,996.85
2022,07,17,11,51,996.78
2022,07,17,11,52,996.78
2022,07,17,11,53,996.78
2022,07,17,11,54,996.75
2022,07,17,11,55,996.78
2022,07,17,11,56,996.72
2022,07,17,11,57,996.82
2022,07,17,11,58,996.78
2022,07,17,11,59,996.82
2022,07,17,12,00,996.85
2022,07,17,12,01,996.78
2022,07,17,12,02,996.72
2022,07,17,12,03,996.78
2022,07,17,12,04,996.68
2022,07,17,12,05,996.65
2022,07,17,12,06,996.61
2022,07,17,12,07,996.61
2022,07,17,12,08,996.51
2022,07,17,12,09,996.51
2022,07,17,12,10,996.55
2022,07,17,12,11,996.51
2022,07,17,12,12,996.58
2022,07,17,12,13,996.55
2022,07,17,12,14,996.51
2022,07,17,12,15,996.48
2022,07,17,12,16,996.51
2022,07,17,12,17,996.51
2022,07,17,12,18,996.45
2022,07,17,12,19,996.45
2022,07,17,12,20,996.48
2022,07,17,12,21,996.48
2022,07,17,12,22,996.45
2022,07,17,12,23,996.45
2022,07,17,12,24,996.45
2022,07,17,12,25,996.48
2022,07,17,12,26,996.45
2022,07,17,12,27,996.45
2022,07,17,12,28,996.45
2022,07,17,12,29,996.51
2022,07,17,12,30,996.48
2022,07,17,12,31,996.51
2022,07,17,12,32,996.55
2022,07,17,12,33,996.55
2022,07,17,12,34,996.55
2022,07,17,12,35,996.48
2022,07,17,12,36,996.48
2022,07,17,12,37,996.51
2022,07,17,12,38,996.51
2022,07,17,12,39,996.45
2022,07,17,12,40,996.48
2022,07,17,12,41,996.41
2022,07,17,12,42,996.41
2022,07,17,12,43,996.41
2022,07,17,12,44,996.31
2022,07,17,12,45,996.28
2022,07,17,12,46,996.21
2022,07,17,12,47,996.21
2022,07,17,12,48,996.17
2022,07,17,12,49,996.14
2022,07,17,12,50,996.14
2022,07,17,12,51,996.14
2022,07,17,12,52,996.11
2022,07,17,12,53,996.14
2022,07,17,12,54,996.14
2022,07,17,12,55,996.21
2022,07,17,12,56,996.17
2022,07,17,12,57,996.21
2022,07,17,12,58,996.21
2022,07,17,12,59,996.17
2022,07,17,13,00,996.17
2022,07,17,13,01,996.17
2022,07,17,13,02,996.21
2022,07,17,13,03,996.14
2022,07,17,13,04,996.14
2022,07,17,13,05,996.17
2022,07,17,13,06,996.17
2022,07,17,13,07,996.14
2022,07,17,13,08,996.21
2022,07,17,13,09,996.21
2022,07,17,13,10,996.28
2022,07,17,13,11,996.28
2022,07,17,13,12,996.31
2022,07,17,13,13,996.28
2022,07,17,13,14,996.28
2022,07,17,13,15,996.24
2022,07,17,13,16,996.24
2022,07,17,13,17,996.24
2022,07,17,13,18,996.21
2022,07,17,13,19,996.28
2022,07,17,13,20,996.24
2022,07,17,13,21,996.28
2022,07,17,13,22,996.28
2022,07,17,13,23,996.24
2022,07,17,13,24,996.28
2022,07,17,13,25,996.24
2022,07,17,13,26,996.21
2022,07,17,13,27,996.24
2022,07,17,13,28,996.24
2022,07,17,13,29,996.21
2022,07,17,13,30,996.21
2022,07,17,13,31,996.17
2022,07,17,13,32,996.14
2022,07,17,13,33,996.24
2022,07,17,13,34,996.21
2022,07,17,13,35,996.24
2022,07,17,13,36,996.24
2022,07,17,13,37,996.24
2022,07,17,13,38,996.28
2022,07,17,13,39,996.17
2022,07,17,13,40,996.24
2022,07,17,13,41,996.21
2022,07,17,13,42,996.17
2022,07,17,13,43,996.14
2022,07,17,13,44,996.14
2022,07,17,13,45,996.07
2022,07,17,13,46,996.11
2022,07,17,13,47,996.07
2022,07,17,13,48,996.01
2022,07,17,13,49,996.04
2022,07,17,13,50,996.04
2022,07,17,13,51,996.04
2022,07,17,13,52,996.04
2022,07,17,13,53,996.04
2022,07,17,13,54,995.97
2022,07,17,13,55,995.97
2022,07,17,13,56,995.97
2022,07,17,13,57,996.04
2022,07,17,13,58,995.97
2022,07,17,13,59,996.04
2022,07,17,14,00,995.97
2022,07,17,14,01,995.97
2022,07,17,14,02,995.97
2022,07,17,14,03,996.01
2022,07,17,14,04,995.94
2022,07,17,14,05,995.97
2022,07,17,14,06,996.04
2022,07,17,14,07,996.07
2022,07,17,14,08,996.01
2022,07,17,14,09,996.07
2022,07,17,14,10,996.04
2022,07,17,14,11,995.97
2022,07,17,14,12,995.97
2022,07,17,14,13,995.94
2022,07,17,14,14,995.94
2022,07,17,14,15,995.87
2022,07,17,14,16,995.90
2022,07,17,14,17,995.97
2022,07,17,14,18,995.90
2022,07,17,14,19,995.87
2022,07,17,14,20,995.87
2022,07,17,14,21,995.84
2022,07,17,14,22,995.87
2022,07,17,14,23,995.84
2022,07,17,14,24,995.84
2022,07,17,14,25,995.84
2022,07,17,14,26,995.84
2022,07,17,14,27,995.84
2022,07,17,14,28,995.80
2022,07,17,14,29,995.77
2022,07,17,14,30,995.73
2022,07,17,14,31,995.73
2022,07,17,14,32,995.77
2022,07,17,14,33,995.77
2022,07,17,14,34,995.77
2022,07,17,14,35,995.77
2022,07,17,14,36,995.77
2022,07,17,14,37,995.77
2022,07,17,14,38,995.77
2022,07,17,14,39,995.77
2022,07,17,14,40,995.77
2022,07,17,14,41,995.77
2022,07,17,14,42,995.73
2022,07,17,14,43,995.77
2022,07,17,14,44,995.70
2022,07,17,14,45,995.73
2022,07,17,14,46,995.67
2022,07,17,14,47,995.73
2022,07,17,14,48,995.73
2022,07,17,14,49,995.67
2022,07,17,14,50,995.70
2022,07,17,14,51,995.67
2022,07,17,14,52,995.73
2022,07,17,14,53,995.70
2022,07,17,14,54,995.73
2022,07,17,14,55,995.67
2022,07,17,14,56,995.67
2022,07,17,14,57,995.56
2022,07,17,14,58,995.60
2022,07,17,14,59,995.56
2022,07,17,15,00,995.56
2022,07,17,15,01,995.60
2022,07,17,15,02,995.60
2022,07,17,15,03,995.60
2022,07,17,15,04,995.56
2022,07,17,15,05,995.56
2022,07,17,15,06,995.60
2022,07,17,15,07,995.56
2022,07,17,15,08,995.53
2022,07,17,15,09,995.50
2022,07,17,15,10,995.50
2022,07,17,15,11,995.46
2022,07,17,15,12,995.46
2022,07,17,15,13,995.50
2022,07,17,15,14,995.43
2022,07,17,15,15,995.46
2022,07,17,15,16,995.43
2022,07,17,15,17,995.36
2022,07,17,15,18,995.36
2022,07,17,15,19,995.36
2022,07,17,15,20,995.40
2022,07,17,15,21,995.40
2022,07,17,15,22,995.46
2022,07,17,15,23,995.43
2022,07,17,15,24,995.46
2022,07,17,15,25,995.46
2022,07,17,15,26,995.50
2022,07,17,15,27,995.43
2022,07,17,15,28,995.43
2022,07,17,15,29,995.43
2022,07,17,15,30,995.46
2022,07,17,15,31,995.46
2022,07,17,15,32,995.43
2022,07,17,15,33,995.50
2022,07,17,15,34,995.50
2022,07,17,15,35,995.53
2022,07,17,15,36,995.53
2022,07,17,15,37,995.60
2022,07,17,15,38,995.56
2022,07,17,15,39,995.50
2022,07,17,15,40,995.53
2022,07,17,15,41,995.50
2022,07,17,15,42,995.50
2022,07,17,15,43,995.50
2022,07,17,15,44,995.46
2022,07,17,15,45,995.43
2022,07,17,15,46,995.50
2022,07,17,15,47,995.50
2022,07,17,15,48,995.46
2022,07,17,15,49,995.43
2022,07,17,15,50,995.43
2022,07,17,15,51,995.43
2022,07,17,15,52,995.40
2022,07,17,15,53,995.33
2022,07,17,15,54,995.33
2022,07,17,15,55,995.29
2022,07,17,15,56,995.23
2022,07,17,15,57,995.19
2022,07,17,15,58,995.19
2022,07,17,15,59,995.23
2022,07,17,16,00,995.23
2022,07,17,16,01,995.23
2022,07,17,16,02,995.23
2022,07,17,16,03,995.19
2022,07,17,16,04,995.23
2022,07,17,16,05,995.26
2022,07,17,16,06,995.26
2022,07,17,16,07,995.26
2022,07,17,16,08,995.29
2022,07,17,16,09,995.26
2022,07,17,16,10,995.29
2022,07,17,16,11,995.23
2022,07,17,16,12,995.26
2022,07,17,16,13,995.26
2022,07,17,16,14,995.26
2022,07,17,16,15,995.26
2022,07,17,16,16,995.26
2022,07,17,16,17,995.23
2022,07,17,16,18,995.23
2022,07,17,16,19,995.26
2022,07,17,16,20,995.23
2022,07,17,16,21,995.16
2022,07,17,16,22,995.12
2022,07,17,16,23,995.19
2022,07,17,16,24,995.16
2022,07,17,16,25,995.09
2022,07,17,16,26,995.12
2022,07,17,16,27,995.12
2022,07,17,16,28,995.09